GW1367 Weather Reports


time (UTC)temp
C
wind
direction
speed
KPH
gust
KPH
rain 1hr
cm
rain 24hr
cm
rain mn
cm
humidity
%
barometer
mb
20260506223204 30 146 4.8 12.9 0.00 0.03 0.03 76 1013.7
20260506222704 31 103 3.2 11.3 0.00 0.03 0.03 75 1013.1
20260506222204 30 237 1.6 11.3 0.00 0.03 0.03 75 1013.6
20260506221205 30 255 1.6 14.5 0.00 0.03 0.03 77 1014.4
20260506220705 30 222 3.2 16.1 0.00 0.03 0.03 77 1014.3
20260506220204 30 97 1.6 4.8 0.00 0.03 0.03 78 1015.0
20260506215704 30 236 1.6 9.7 0.00 0.03 0.03 79 1015.6
20260506215204 30 102 1.6 11.3 0.00 0.03 0.03 79 1015.6
20260506214705 30 89 3.2 11.3 0.00 0.03 0.03 79 1016.0
20260506214204 30 182 1.6 8.0 0.00 0.03 0.03 78 1015.4
20260506213704 30 176 1.6 4.8 0.00 0.03 0.03 77 1014.7
20260506213204 30 307 1.6 4.8 0.00 0.03 0.03 76 1014.8
20260506212705 30 90 1.6 4.8 0.00 0.03 0.03 76 1014.7
20260506212204 30 317 3.2 11.3 0.00 0.03 0.03 76 1014.5
20260506211705 30 123 3.2 12.9 0.00 0.03 0.03 77 1014.8
20260506211205 30 267 1.6 8.0 0.00 0.03 0.03 77 1015.4
20260506210704 30 246 0.0 3.2 0.00 0.03 0.03 77 1015.3
20260506210204 30 257 0.0 8.0 0.00 0.03 0.03 77 1015.7
20260506205704 31 204 3.2 9.7 0.00 0.03 0.03 76 1015.3
20260506205204 31 108 0.0 11.3 0.00 0.03 0.03 76 1014.9
20260506204705 31 196 0.0 9.7 0.00 0.03 0.03 75 1014.7
20260506204204 31 84 3.2 9.7 0.00 0.03 0.03 75 1014.8
20260506203705 31 279 3.2 8.0 0.00 0.03 0.03 75 1014.7
20260506203204 31 298 1.6 12.9 0.00 0.03 0.03 75 1014.7
20260506202704 31 238 1.6 12.9 0.00 0.03 0.03 75 1014.6
20260506202204 31 130 1.6 9.7 0.00 0.03 0.03 74 1014.5
20260506201704 31 112 1.6 9.7 0.00 0.03 0.03 75 1015.0
20260506201205 31 272 4.8 12.9 0.00 0.03 0.03 74 1014.4
20260506200704 31 154 1.6 11.3 0.00 0.03 0.03 74 1014.5
20260506200204 31 120 3.2 9.7 0.00 0.03 0.03 73 1013.7
20260506195704 31 182 3.2 11.3 0.00 0.03 0.03 72 1013.6
20260506195204 31 107 0.0 9.7 0.00 0.03 0.03 72 1014.0
20260506194204 31 237 1.6 12.9 0.00 0.03 0.03 75 1015.3
20260506193704 31 272 3.2 12.9 0.00 0.03 0.03 76 1015.3
20260506193205 31 286 3.2 12.9 0.00 0.03 0.03 75 1015.4
20260506192704 31 305 4.8 11.3 0.00 0.03 0.03 74 1015.0
20260506191704 30 34 4.8 12.9 0.00 0.03 0.03 76 1016.6
20260506190704 30 106 3.2 12.9 0.00 0.03 0.03 76 1016.6
20260506190204 31 269 6.4 19.3 0.00 0.03 0.03 75 1016.2
20260506185705 31 123 1.6 11.3 0.00 0.03 0.03 74 1016.0
20260506185205 31 180 1.6 11.3 0.00 0.03 0.03 74 1015.7
20260506184705 31 180 1.6 8.0 0.00 0.03 0.03 74 1015.2
20260506184204 31 152 3.2 8.0 0.00 0.03 0.03 74 1015.9
20260506183704 30 254 3.2 8.0 0.00 0.03 0.03 76 1016.5
20260506183204 30 272 3.2 9.7 0.00 0.03 0.03 75 1016.3
20260506182705 30 93 3.2 14.5 0.00 0.03 0.03 74 1016.1
20260506182206 30 115 1.6 11.3 0.00 0.03 0.03 75 1016.3
20260506181705 30 260 1.6 8.0 0.00 0.03 0.03 75 1016.0
20260506180705 30 289 3.2 11.3 0.00 0.03 0.03 79 1017.7
20260506180205 30 241 3.2 9.7 0.00 0.03 0.03 77 1017.1
20260506175206 30 247 1.6 9.7 0.00 0.03 0.03 77 1017.1
20260506174705 30 262 1.6 9.7 0.00 0.03 0.03 77 1017.2
20260506174205 30 219 3.2 9.7 0.00 0.03 0.03 78 1018.1
20260506173706 29 99 1.6 4.8 0.00 0.03 0.03 79 1018.5
20260506172706 29 118 3.2 8.0 0.00 0.03 0.03 79 1018.9
20260506172206 29 234 1.6 9.7 0.00 0.03 0.03 81 1019.7
20260506171705 28 205 1.6 9.7 0.00 0.03 0.03 81 1020.2
20260506170205 28 251 1.6 14.5 0.00 0.03 0.03 81 1020.5
20260506165705 28 130 1.6 4.8 0.00 0.03 0.03 81 1020.7
20260506165206 28 255 3.2 12.9 0.00 0.03 0.03 83 1021.9
20260506164706 28 251 1.6 8.0 0.00 0.03 0.03 83 1022.0
20260506164206 28 288 1.6 8.0 0.00 0.03 0.03 82 1020.7
20260506163705 28 247 3.2 12.9 0.00 0.03 0.03 82 1020.6
20260506163206 28 279 1.6 8.0 0.00 0.03 0.03 82 1021.6
20260506162705 28 291 1.6 12.9 0.00 0.03 0.03 84 1023.9
20260506162205 28 238 3.2 9.7 0.00 0.03 0.03 84 1023.5
20260506161705 28 245 1.6 9.7 0.00 0.03 0.03 82 1020.9
20260506160705 28 270 1.6 8.0 0.00 0.03 0.03 83 1023.2
20260506155205 28 247 3.2 8.0 0.00 0.03 0.03 84 1024.3
20260506154705 27 128 0.0 4.8 0.00 0.03 0.03 85 1027.1
20260506154205 27 117 1.6 4.8 0.00 0.03 0.03 85 1028.5
20260506153205 27 277 1.6 11.3 0.00 0.03 0.03 86 1030.4
20260506152705 27 173 3.2 9.7 0.00 0.03 0.03 87 1032.2
20260506152205 27 104 1.6 8.0 0.00 0.03 0.03 88 1035.4
20260506151705 27 279 1.6 8.0 0.00 0.03 0.03 88 1036.7
20260506151205 27 101 1.6 8.0 0.00 0.03 0.03 89 1039.9
20260506150705 26 286 0.0 4.8 0.00 0.03 0.03 90 1042.2
20260506150205 26 241 1.6 4.8 0.00 0.03 0.03 90 1044.1
20260506145705 26 291 0.0 4.8 0.00 0.03 0.03 90 1045.9
20260506145205 26 279 1.6 4.8 0.00 0.03 0.03 91 1046.8
20260506144706 26 258 1.6 8.0 0.00 0.03 0.03 91 1047.2
20260506144206 26 291 1.6 9.7 0.00 0.03 0.03 91 1048.6
20260506143705 26 255 1.6 8.0 0.00 0.03 0.03 92 1050.7
20260506143204 26 282 3.2 8.0 0.00 0.03 0.03 92 1051.4
20260506142705 26 272 0.0 4.8 0.00 0.03 0.03 93 1053.0
20260506142205 25 269 0.0 0.0 0.00 0.03 0.03 93 1053.1
20260506141705 25 194 0.0 3.2 0.00 0.03 0.03 93 1053.4
20260506141205 25 126 0.0 0.0 0.00 0.03 0.03 93 1054.5
20260506140705 25 126 0.0 0.0 0.00 0.03 0.03 94 1054.9
20260506140205 25 126 0.0 3.2 0.00 0.03 0.03 94 1055.2
20260506135705 25 116 0.0 3.2 0.00 0.03 0.03 94 1055.4
20260506135205 25 109 0.0 0.0 0.00 0.03 0.03 94 1055.9
20260506134705 25 109 0.0 1.6 0.00 0.03 0.03 94 1055.8
20260506134205 25 141 0.0 0.0 0.00 0.03 0.03 94 1056.0
20260506133705 25 141 0.0 0.0 0.00 0.03 0.03 94 1056.2
20260506132706 24 141 0.0 1.6 0.00 0.03 0.03 94 1056.1
20260506131705 24 248 0.0 0.0 0.00 0.03 0.03 94 1056.4
20260506131205 24 248 0.0 0.0 0.00 0.03 0.03 94 1056.6
20260506130205 24 248 0.0 0.0 0.00 0.03 0.03 95 1057.0
20260506125705 24 248 0.0 0.0 0.00 0.03 0.03 95 1056.9
20260506125205 24 248 0.0 0.0 0.00 0.03 0.03 95 1057.0
20260506124705 24 248 0.0 0.0 0.00 0.03 0.03 95 1057.1
20260506124204 24 248 0.0 0.0 0.00 0.03 0.03 95 1057.2
20260506123205 23 313 0.0 4.8 0.00 0.03 0.03 95 1057.2
20260506122205 23 116 0.0 3.2 0.00 0.03 0.03 95 1057.1
20260506121705 23 98 0.0 0.0 0.00 0.03 0.03 95 1057.7
20260506121205 23 98 0.0 0.0 0.00 0.03 0.03 95 1057.7
20260506120706 23 99 0.0 4.8 0.00 0.03 0.03 95 1057.8
20260506115705 23 97 0.0 0.0 0.00 0.03 0.03 95 1057.5
20260506115205 23 97 0.0 3.2 0.00 0.03 0.03 95 1057.5
20260506114705 23 270 0.0 0.0 0.00 0.03 0.03 95 1057.4
20260506114205 23 112 0.0 0.0 0.00 0.03 0.03 96 1057.6
20260506113207 23 112 0.0 0.0 0.00 0.03 0.03 96 1057.6
20260506112707 23 112 1.6 4.8 0.00 0.03 0.03 96 1057.0
20260506112205 23 115 1.6 4.8 0.00 0.03 0.03 96 1057.6
20260506111706 23 112 0.0 4.8 0.00 0.03 0.03 96 1057.8
20260506110705 23 108 0.0 4.8 0.00 0.03 0.03 96 1058.1
20260506110205 23 116 0.0 4.8 0.00 0.03 0.03 96 1058.3
20260506105707 23 340 0.0 4.8 0.00 0.03 0.03 96 1058.6
20260506105205 23 124 0.0 1.6 0.00 0.03 0.03 96 1058.5
20260506104705 23 113 0.0 0.0 0.00 0.03 0.03 96 1058.3
20260506104205 23 113 0.0 3.2 0.00 0.03 0.03 96 1058.2
20260506103705 23 347 0.0 0.0 0.00 0.03 0.03 96 1058.3
20260506103205 23 347 0.0 1.6 0.00 0.03 0.03 96 1058.3
20260506102706 23 14 0.0 1.6 0.00 0.03 0.03 96 1058.3
20260506102206 23 104 0.0 0.0 0.00 0.03 0.03 96 1058.1
20260506101704 23 104 0.0 0.0 0.00 0.03 0.03 96 1058.1
20260506101206 23 104 0.0 0.0 0.00 0.03 0.03 96 1058.0
20260506100706 23 136 0.0 4.8 0.00 0.03 0.03 96 1057.8
20260506100205 23 157 0.0 3.2 0.00 0.03 0.03 96 1057.8
20260506095705 23 111 1.6 3.2 0.00 0.03 0.03 96 1058.1
20260506095205 23 89 0.0 0.0 0.00 0.03 0.03 96 1058.6
20260506094707 23 118 0.0 0.0 0.00 0.03 0.03 96 1058.5
20260506094205 23 118 0.0 4.8 0.00 0.03 0.03 96 1057.7
20260506093205 22 111 0.0 3.2 0.00 0.03 0.03 96 1058.4
20260506092705 22 96 0.0 1.6 0.00 0.03 0.03 96 1058.2
20260506092205 22 301 0.0 4.8 0.00 0.03 0.03 96 1058.2
20260506091206 22 115 0.0 0.0 0.00 0.03 0.03 96 1057.4
20260506090205 22 109 0.0 1.6 0.00 0.03 0.03 96 1057.1
20260506085704 22 102 0.0 0.0 0.00 0.03 0.03 96 1057.0
20260506085205 22 102 0.0 3.2 0.00 0.03 0.03 96 1056.5
20260506084705 22 118 0.0 0.0 0.00 0.03 0.03 96 1056.8
20260506083705 22 116 1.6 4.8 0.00 0.03 0.03 95 1056.4
20260506083205 22 70 0.0 3.2 0.00 0.03 0.03 95 1056.5
20260506082205 22 112 0.0 0.0 0.00 0.03 0.03 95 1055.9
20260506081705 22 112 0.0 0.0 0.00 0.03 0.03 95 1055.7
20260506081205 22 112 0.0 3.2 0.00 0.03 0.03 95 1055.1
20260506080705 23 112 0.0 1.6 0.00 0.03 0.03 94 1054.6
20260506080205 23 119 0.0 0.0 0.00 0.03 0.03 94 1054.6
20260506073205 23 111 0.0 3.2 0.00 0.03 0.03 94 1054.0
20260506072705 23 111 0.0 0.0 0.00 0.03 0.03 94 1054.3
20260506071704 23 116 0.0 3.2 0.00 0.03 0.03 94 1054.3
20260506071205 23 118 0.0 3.2 0.00 0.03 0.03 94 1054.2
20260506070705 23 95 0.0 1.6 0.00 0.03 0.03 94 1054.5
20260506070205 23 264 3.2 4.8 0.00 0.03 0.03 94 1054.5
20260506062205 23 115 0.0 3.2 0.00 0.03 0.03 94 1052.2
20260506061705 23 110 1.6 4.8 0.00 0.03 0.03 94 1051.9
20260506060204 23 60 0.0 4.8 0.00 0.03 0.03 94 1053.3
20260506051205 22 113 0.0 0.0 0.00 0.03 0.03 93 1052.1
20260506050704 22 113 0.0 0.0 0.00 0.03 0.03 93 1051.5
20260506044705 22 101 0.0 0.0 0.00 0.03 0.03 92 1048.4
20260506044205 22 101 0.0 0.0 0.00 0.03 0.03 92 1048.2
20260506043704 22 101 0.0 0.0 0.00 0.03 0.03 92 1046.8
20260506043205 22 101 0.0 0.0 0.00 0.03 0.03 92 1045.7
20260506042705 23 101 0.0 4.8 0.00 0.03 0.03 91 1043.8
20260506042205 23 123 0.0 1.6 0.00 0.03 0.03 91 1042.9
20260506041705 23 106 0.0 3.2 0.00 0.03 0.03 90 1041.5
20260506041204 23 121 0.0 0.0 0.00 0.03 0.03 90 1040.7
20260506040705 23 121 1.6 8.0 0.00 0.03 0.03 90 1039.5
20260506040205 23 98 0.0 4.8 0.00 0.03 0.03 90 1039.5
20260506035705 23 136 0.0 4.8 0.00 0.03 0.03 90 1040.3
20260506034705 23 116 0.0 0.0 0.00 0.03 0.03 89 1036.2
20260506034204 23 116 0.0 4.8 0.00 0.03 0.03 89 1033.9
20260506033706 23 147 0.0 0.0 0.00 0.03 0.03 88 1032.6
20260506033205 23 147 0.0 0.0 0.00 0.03 0.03 88 1031.0
20260506031705 24 139 0.0 4.8 0.00 0.03 0.03 87 1028.2
20260506031206 24 105 0.0 3.2 0.00 0.03 0.03 87 1027.0
20260506030704 24 111 0.0 3.2 0.00 0.03 0.03 86 1026.6
20260506030205 24 79 0.0 3.2 0.00 0.03 0.03 86 1026.0
20260506025704 24 121 0.0 3.2 0.00 0.03 0.03 86 1025.5
20260506025204 24 148 0.0 4.8 0.00 0.03 0.03 86 1025.1
20260506024704 24 116 0.0 0.0 0.00 0.03 0.03 86 1025.1
20260506024204 24 116 1.6 4.8 0.00 0.03 0.03 86 1024.5
20260506023205 25 107 1.6 4.8 0.00 0.03 0.03 85 1023.0
20260506022704 25 250 0.0 3.2 0.00 0.03 0.03 86 1023.7
20260506021705 25 149 0.0 3.2 0.00 0.03 0.03 85 1022.3
20260506020704 25 106 1.6 4.8 0.00 0.03 0.03 84 1019.7
20260506020205 25 103 0.0 4.8 0.00 0.03 0.03 84 1019.8
20260506015705 25 100 0.0 3.2 0.00 0.03 0.03 83 1018.2
20260506014204 25 104 0.0 4.8 0.00 0.03 0.03 82 1016.0
20260506013705 25 219 0.0 4.8 0.00 0.03 0.03 81 1015.6
20260506013205 26 117 0.0 3.2 0.00 0.03 0.03 80 1015.2
20260506012704 26 131 1.6 3.2 0.00 0.03 0.03 80 1014.9
20260506012205 26 109 1.6 4.8 0.00 0.03 0.03 79 1014.4
20260506011704 26 110 1.6 4.8 0.00 0.03 0.03 79 1014.4
20260506010705 26 109 1.6 4.8 0.00 0.03 0.03 78 1014.1
20260506010205 26 226 1.6 4.8 0.00 0.03 0.03 78 1014.5
20260506005704 26 285 1.6 4.8 0.00 0.03 0.03 78 1014.1
20260506005204 26 283 1.6 8.0 0.00 0.03 0.03 78 1014.1
20260506004704 26 107 1.6 8.0 0.00 0.03 0.03 77 1014.1
20260506004205 26 105 1.6 4.8 0.00 0.03 0.03 77 1014.1
20260506003205 27 98 0.0 4.8 0.00 0.03 0.03 76 1013.7
20260506002705 27 176 1.6 4.8 0.00 0.03 0.03 76 1013.7
20260506002204 27 146 1.6 9.7 0.00 0.03 0.03 76 1013.9
20260506001704 27 287 1.6 8.0 0.00 0.03 0.03 75 1013.8
20260506000704 27 269 1.6 4.8 0.00 0.03 0.03 74 1013.4
20260506000205 27 290 1.6 4.8 0.00 0.03 0.03 74 1013.3
20260505235704 27 94 4.8 12.9 0.00 0.03 0.03 74 1013.4
20260505235204 27 128 1.6 11.3 0.00 0.03 0.03 73 1013.2
20260505234704 27 113 3.2 12.9 0.00 0.03 0.03 73 1013.1
20260505234204 27 97 4.8 12.9 0.00 0.03 0.03 73 1013.2
20260505233705 28 106 1.6 11.3 0.00 0.03 0.03 72 1012.8
20260505233205 28 125 1.6 11.3 0.00 0.03 0.03 73 1013.1
20260505232704 28 266 3.2 14.5 0.00 0.03 0.03 73 1013.0
20260505232204 28 224 1.6 8.0 0.00 0.03 0.03 71 1012.4
20260505231705 28 162 3.2 11.3 0.00 0.03 0.03 70 1012.1
20260505231205 28 292 1.6 9.7 0.00 0.03 0.03 70 1012.1
20260505230704 28 280 1.6 12.9 0.00 0.03 0.03 70 1011.9
20260505230204 28 102 3.2 9.7 0.00 0.03 0.03 69 1011.6
20260505225705 28 251 0.0 12.9 0.00 0.03 0.03 70 1012.1
20260505224705 28 263 1.6 9.7 0.00 0.03 0.03 70 1011.9
20260505224204 28 260 1.6 12.9 0.00 0.03 0.03 68 1011.3
20260505223705 28 239 3.2 16.1 0.00 0.03 0.03 69 1011.5